TimeEDT,TemperatureF,Dew PointF,Humidity,Sea Level PressureIn,VisibilityMPH,Wind Direction,Wind SpeedMPH,Gust SpeedMPH,PrecipitationIn,Events,Conditions,WindDirDegrees,DateUTC
12:54 AM,28.0,25.0,88,30.40,10.0,Calm,Calm,-,N/A,,Clear,0,2013-04-18 04:54:00
1:54 AM,28.9,26.1,89,30.40,10.0,Calm,Calm,-,N/A,,Clear,0,2013-04-18 05:54:00
2:54 AM,28.9,26.1,89,30.39,10.0,Calm,Calm,-,N/A,,Clear,0,2013-04-18 06:54:00
3:54 AM,28.9,27.0,92,30.40,10.0,South,3.5,-,N/A,,Clear,190,2013-04-18 07:54:00
4:54 AM,30.0,27.0,88,30.40,10.0,Calm,Calm,-,N/A,,Clear,0,2013-04-18 08:54:00
5:54 AM,30.0,27.0,88,30.41,10.0,South,4.6,-,N/A,,Clear,170,2013-04-18 09:54:00
6:54 AM,32.0,28.0,85,30.40,10.0,Calm,Calm,-,N/A,,Scattered Clouds,0,2013-04-18 10:54:00
7:54 AM,34.0,28.9,82,30.40,10.0,Calm,Calm,-,N/A,,Mostly Cloudy,0,2013-04-18 11:54:00
8:54 AM,39.0,28.9,67,30.38,10.0,Calm,Calm,-,N/A,,Overcast,0,2013-04-18 12:54:00
9:54 AM,45.0,25.0,46,30.34,10.0,SSW,6.9,-,N/A,,Overcast,210,2013-04-18 13:54:00
10:54 AM,46.9,24.1,41,30.32,10.0,South,6.9,-,0.00,,Overcast,190,2013-04-18 14:54:00
11:54 AM,45.0,32.0,60,30.31,10.0,Calm,Calm,-,0.01,Rain,Light Rain,0,2013-04-18 15:54:00
12:54 PM,43.0,36.0,76,30.27,10.0,Calm,Calm,-,0.02,,Overcast,0,2013-04-18 16:54:00
1:54 PM,48.0,34.0,58,30.23,10.0,South,13.8,24.2,N/A,,Overcast,190,2013-04-18 17:54:00
2:54 PM,52.0,32.0,47,30.17,10.0,South,20.7,32.2,N/A,,Overcast,190,2013-04-18 18:54:00
3:54 PM,57.0,34.0,42,30.10,10.0,SSE,12.7,26.5,N/A,,Overcast,160,2013-04-18 19:54:00
4:54 PM,59.0,34.0,39,30.07,10.0,South,12.7,24.2,N/A,,Overcast,170,2013-04-18 20:54:00
5:54 PM,60.1,34.0,38,30.03,10.0,South,11.5,27.6,N/A,,Overcast,170,2013-04-18 21:54:00
6:54 PM,59.0,33.1,38,30.03,10.0,SSE,12.7,25.3,N/A,,Overcast,160,2013-04-18 22:54:00
7:54 PM,57.9,32.0,37,30.01,10.0,South,16.1,31.1,N/A,,Overcast,170,2013-04-18 23:54:00
8:54 PM,57.0,33.1,40,30.02,10.0,South,13.8,24.2,N/A,,Overcast,170,2013-04-19 00:54:00
9:54 PM,55.9,34.0,44,29.99,10.0,South,16.1,26.5,N/A,,Partly Cloudy,180,2013-04-19 01:54:00
10:54 PM,55.0,33.1,43,29.97,10.0,South,18.4,26.5,N/A,,Clear,180,2013-04-19 02:54:00
11:54 PM,54.0,35.1,49,29.94,10.0,SSE,11.5,20.7,N/A,,Scattered Clouds,160,2013-04-19 03:54:00